User: anonymous
Location: Unspecified
(0.0000°N, 0.0000°E)
Time: 15:44:28
(UTC+02:00)
Language:

Cosmos 1980 Rocket - Orbit

View from above orbital plane
View from above orbital plane
View from above satellite
View from above satellite

Ground track
Ground track

The orbit data is extracted from the following two-line orbital elements,

1 19650U 88102B   14233.50008861 -.00000267  00000-0 -11158-3 0  3586
2 19650 071.0018 022.2123 0016216 306.6338 109.2911 14.15672480330127
Epoch (UTC): 21 August 2014 12:00:07
Eccentricity: 0.0016216
inclination: 71.0018°
perigee height: 828 km
apogee height: 852 km
right ascension of ascending node: 22.2123°
argument of perigee: 306.6338°
revolutions per day: 14.15672480
mean anomaly at epoch: 109.2911°
orbit number at epoch: 33012

The dashed part of the orbit path shows where the satellite is in the earth's shadow,  

DLR